From 244 observations 1994-2005, mean residual 0".82.

   Nongravitational parameters A1 = -0.26 +/- 0.02, A2 = +0.0103 +/- 0.0001.

 

Date/        TT  R.A.(2000) Decl.     Delta   r     Daily motion  Mag.  Moon Age

              h    h  m       。  ,                      ,  / PA 。  m1      。

2005 Mar. 15 10  01 33.57  +09 58.2   1.473  0.796    87.2 /  77   9.9   33  .27

          16 10  01 39.33  +10 17.6   1.471  0.802    87.1 /  77  10.0   44  .37

          17 10  01 45.09  +10 36.6   1.470  0.808    86.9 /  78  10.1   54  .46

          18 10  01 50.85  +10 55.1   1.468  0.814    86.7 /  78  10.1   65  .56

          19 10  01 56.61  +11 13.1   1.468  0.820    86.5 /  78  10.3   75  .65

          20 10  02 02.37  +11 30.7   1.467  0.827    86.3 /  78  10.4   86  .74

          21 10  02 08.13  +11 47.7   1.467  0.834    86.0 /  79  10.5   96  .82

          22 10  02 13.88  +12 04.2   1.467  0.841    85.7 /  79  10.6  107  .88

          23 10  02 19.63  +12 20.2   1.467  0.849    85.4 /  79  10.7  118  .94

          24 10  02 25.36  +12 35.7   1.468  0.857    85.1 /  80  10.8  129  .98

          25 10  02 31.09  +12 50.6   1.469  0.864    84.7 /  80  10.9  140 1.00

          26 10  02 36.80  +13 04.9   1.471  0.873    84.3 /  80  11.1  151 1.00

          27 10  02 42.49  +13 18.7   1.473  0.881    83.9 /  81  11.2  163  .97

          28 10  02 48.17  +13 32.0   1.475  0.889    83.4 /  81  11.3  173  .93

          29 10  02 53.82  +13 44.7   1.478  0.898    83.0 /  81  11.4  171  .86

          30 10  02 59.46  +13 56.8   1.481  0.907    82.5 /  82  11.6  160  .78

          31 10  03 05.07  +14 08.4   1.484  0.916    82.0 /  82  11.7  148  .68

     Apr.  1 10  03 10.65  +14 19.4   1.488  0.925    81.4 /  82  11.9  135  .57

           2 10  03 16.21  +14 29.8   1.492  0.935    80.9 /  83  12.0  122  .46

           3 10  03 21.74  +14 39.7   1.496  0.944    80.3 /  83  12.1  109  .34

           4 10  03 27.24  +14 49.0   1.501  0.954    79.7 /  84  12.3   97  .24

           5 10  03 32.71  +14 57.7   1.506  0.963    79.1 /  84  12.4   84  .15

           6 10  03 38.14  +15 06.0   1.511  0.973    78.5 /  84  12.5   71  .08

           7 10  03 43.54  +15 13.6   1.517  0.983    77.9 /  85  12.7   58  .03

           8 10  03 48.91  +15 20.8   1.523  0.993    77.3 /  85  12.8   46  .00

           9 10  03 54.23  +15 27.4   1.529  1.004    76.6 /  85  13.0   33  .00

          10 10  03 59.51  +15 33.4   1.536  1.014    76.0 /  86  13.1   22  .03

          11 10  04 04.76  +15 39.0   1.543  1.024    75.3 /  86  13.3   12  .07

          12 10  04 09.96  +15 44.0   1.550  1.035    74.6 /  86  13.4    9  .14

          13 10  04 15.12  +15 48.5   1.558  1.045    73.9 /  87  13.5   17  .21

          14 10  04 20.24  +15 52.6   1.566  1.056    73.2 /  87  13.7   26  .30

          15 10  04 25.31  +15 56.2   1.574  1.066    72.5 /  87  13.8   37  .39

          16 10  04 30.33  +15 59.2   1.582  1.077    71.8 /  88  14.0   47  .48

          17 10  04 35.31  +16 01.9   1.591  1.088    71.1 /  88  14.1   58  .58

          18 10  04 40.24  +16 04.0   1.600  1.099    70.4 /  88  14.2   68  .67

          19 10  04 45.13  +16 05.8   1.609  1.109    69.7 /  89  14.4   79  .76

          20 10  04 49.96  +16 07.1   1.619  1.120    69.0 /  89  14.5   90  .83

          21 10  04 54.75  +16 08.0   1.628  1.131    68.3 /  89  14.7  101  .90

          22 10  04 59.49  +16 08.5   1.639  1.142    67.6 /  90  14.8  112  .95

          23 10  05 04.18  +16 08.6   1.649  1.153    66.9 /  90  14.9  124  .99

          24 10  05 08.82  +16 08.3   1.659  1.164    66.1 /  90  15.1  136 1.00

          25 10  05 13.41  +16 07.6   1.670  1.175    65.4 /  91  15.2  148  .99

          26 10  05 17.95  +16 06.6   1.681  1.187    64.7 /  91  15.4  159  .95

          27 10  05 22.44  +16 05.2   1.692  1.198    64.0 /  91  15.5  168  .89

          28 10  05 26.88  +16 03.5   1.704  1.209    63.4 /  92  15.6  166  .81

          29 10  05 31.27  +16 01.5   1.715  1.220    62.7 /  92  15.8  155  .71

          30 10  05 35.62  +15 59.1   1.727  1.231    62.0 /  92  15.9  143  .60

     May   1 10  05 39.91  +15 56.5   1.739  1.242    61.3 /  93  16.0  131  .48

NAKANO

         **** Don't distribute anyone except personal use only ****

                (C) Copyright 2005 OAA/ComputingSection

write mail from CFAD0::NAKANO on 2005-03-17 01:58:04(JST).

 



 141P/Machholz 2-A 

Epoch 2005 Mar. 11.0 TT = JDT 2453440.5  

T 2005 Feb. 27.75954 TT                                 Nakano

q   0.7528261            (2000.0)            P               Q

n   0.18854923     Peri.  149.27944     +0.80309279     -0.56036303

a   3.0119854      Node   246.16328     +0.49173859     +0.81528426

e   0.7500565      Incl.   12.79493     +0.33650428     +0.14596181

P   5.23

From 360 observations 1994-2000, mean residual 0".90.

   Nongravitational parameters A1 = +0.22 +/- 0.01, A2 = -0.1922 +/- 0.0027,

   A3 = +0.16 +/- 0.01.



NAKANO

         **** Don't distribute anyone except personal use only ****

                (C) Copyright 2002 OAA/ComputingSection

write mail from CFAD0::NAKANO on 2002-05-10 00:07:37(JST).





 141P/Machholz 2-D 

Epoch 2005 Mar. 11.0 TT = JDT 2453440.5  

T 2005 Mar. 2.54897 TT                                  Nakano

q   0.7529668            (2000.0)            P               Q

n   0.18831555     Peri.  149.25906     +0.80332948     -0.56002015

a   3.0144766      Node   246.15943     +0.49139635     +0.81549823

e   0.7502164      Incl.   12.79593     +0.33643925     +0.14608236

P   5.23

From 117 observations 1994-1999, mean residual 1".04.

   Nongravitational parameters A1 = +2.18 +/- 0.16, A2 = +0.5808 +/- 0.0472.

Residuals in seconds of arc 

1994/                     940927 657 (2.7-  1.8+)   991025 402  0.7+  0.1+  

940830 557  0.2+  0.4-    940927 657  2.2-  1.5+    991025 867  0.1-  0.7+  

940830 557  0.2+  0.7-    940927 657 (2.6-  1.8+)   991025 402  1.5+  1.7-  

940830 557  0.2-  0.2-    941002 360 (3.3-  2.6+)   991025 402  2.1+  0.1-  

940830 557  0.5+  0.5-    941002 360  1.3-  1.7+    991025 402  0.3+  0.9-  

940830 557  0.3+  0.6-    941002 372  0.8+  1.7+ Y  991025 867  1.2-  0.8+  

940830 557  0.2+  1.3-    941005 557 (1.9-  2.5+)   991028 897 (3.3-  2.0-) 

940830 657 (2.8-  0.0 )   941007 557  2.1-  1.2+    991028 897  1.5-  1.3-  

940830 657 (3.6-  2.1-)   941007 557  1.6-  1.3+    991029 402  1.1-  0.0   

940830 657  1.1+  0.1-    941007 557 (2.6-  1.6+)   991029 402  0.9+  1.2+  

940830 657 (0.5-  3.5-)   941007 046  0.9-  1.2+    991029 402  1.4+  0.2-  

940901 658 (2.7-  0.9+)   941007 046 (3.6-  1.4+)   991029 402  0.7+  0.0   

940901 658 (5.5-  2.0+)   941007 046 (5.1-  1.3+)   991029 402  0.8-  0.0   

940901 360 (3.7-  0.8+)   941007 046 (2.7-  0.8-)   991029 402  0.2-  0.5-  

940901 360  2.1-  0.4-    941007 675 (3.8-  2.5+)   991101 540 (2.3+  1.0+) 

940902 557 (2.4-  0.7+)   941007 675  2.0-  1.1+    991101 540  0.7+  1.7+  

940902 557  1.6-  0.8+    941010 675 (4.0-  0.6-)   991101 540  1.0+  0.9+  

940902 557  1.4+  0.1+    941010 675 (3.6-  1.3+)   991101 540  1.2+  0.7+  

940903 410 (3.0-  1.4+)   941011 557  0.8-  0.2+    991101 540  2.2+  0.8+  

940903 410 (5.4-  1.7+)   941011 557  0.0   0.5-    991102 372 (0.7-  2.5+) 

940903 410 (3.7-  0.1-)   941011 557  0.6+  0.1-    991102 413  0.0   0.7-  

940903 360  0.6-  1.0+    941014 360  1.5+  0.6+    991102 372 (1.2-  2.5+) 

940903 360  1.6-  0.1-    941014 360  1.7+  0.5-    991103 402 (2.3-  0.8-) 

940904 557  0.9-  1.8+    941016 540 (9.8-  8.8+)   991103 360  0.7-  0.3-  

940904 557  1.3-  1.7+    941016 540(10.0-  4.6+)   991103 402  0.4-  0.7-  

940904 557  0.8-  0.6+    941018 557  1.6+  1.2-    991103 402  1.6-  0.4-  

940904 675 (1.2-  6.3+)   941018 557  1.9-  1.3+    991103 360  1.0-  0.2-  

940905 540 (5.0-  0.0 )   941018 557 (3.1-  0.9+)   991103 367  0.1+  0.7+  

940906 675 (3.6-  1.8+)   941018 557  2.1-  0.1-    991103 367  1.8+  1.0+  

940908 540  1.1+  1.0-    941018 557 (6.3-  1.0+)   991103 367  0.6-  0.2-  

940908 540 (0.6+  2.4-)   941022 897  1.8-  0.2+    991104 360  0.1+  0.7+  

940908 360  1.3+  1.6-    941022 897  2.0-  1.2-    991104 360  0.1-  0.2+  

940908 360  1.3+  1.4-    941102 557  1.0-  0.7+    991104 360  0.7+  0.4-  

940910 557  0.5+  0.1+    941102 557  0.7-  0.5-    991104 413  0.4-  0.2-  

940910 557  0.7-  1.1-    941102 557  1.4+  0.4-    991105 402 (2.3+  0.9-) 

940910 557  1.3+  0.1+    941109 691  1.6+  0.1+    991105 402  1.9-  0.8-  

940910 557 (3.4+  1.6-)   941109 691  0.0   1.2-    991105 402  0.5-  1.0-  

940910 557  1.5+  0.1-    941110 691 (4.8+  0.3-)   991106 349  0.5+  0.1+  

940910 816 (3.5+  0.6-)   941110 691 (2.4+  1.0+)   991106 349  0.8-  1.6-  

940910 816  0.9-  1.4+    941208 691 (4.4+  1.3+)   991107 402  1.0-  0.6-  

940913 360 (3.2+  1.9-)   941208 691 (0.8+  3.7+)   991107 402  2.0-  0.1-  

940913 360 (2.5+  2.2-)   941208 691  1.0+  1.6-    991107 402  0.8-  1.1-  

940916 372 (4.6-  0.2+)   1999/                     991109 372 (1.6-  4.8+) 

940916 372  1.1-  0.5+    991017 413  0.9-  0.4+    991110 360  1.6-  0.0   

940923 557  1.7+  0.9-    991017 413  1.1-  0.0     991110 360  0.5-  0.6-  

940923 557  1.9+  1.0-    991017 413  1.4-  0.9+    991110 360  1.0-  0.5-  

940923 557  1.8+  0.7-    991021 402 (2.6-  1.3-)   991113 402  1.7+  0.8+  

940923 557  1.8+  0.7-    991021 402 (2.4-  0.2-)   991113 897 (3.1+  2.2+) 

940923 557  2.0+  1.2-    991021 402  0.4+  0.3-    991113 402  0.6+  0.1+  

940924 372  0.2-  0.8+    991023 402  0.0   0.2-    991113 402  0.0   0.1+  

940924 372  0.8+  0.7-    991023 402  1.3+  0.4+    991113 897 (6.3+  1.7+) 

940924 372  0.2-  0.5+    991023 402  1.6+  0.4-    991118 349  0.1-  0.2-  

940924 372  0.2+  0.8-    991023 402  0.7+  0.5+    991118 349  0.3-  1.6+  

940925 372  0.6-  0.6+    991023 402  0.4-  0.5+    991126 046  0.9-  2.0-  

